Home   Weather   Fairfield (historical)   Past weeks
Flag for USA

Past Weather in Fairfield (historical), Alabama, USA — Yesterday and Last 2 Weeks

Now
55 °F

Overcast.


Feels Like: 51 °F
Forecast: 58 / 46 °F
Wind: 15 mph from Southeast

Location: Huntsville International / Jones Field

Current Time: Dec 8, 2019 at 9:45:34 am

Latest Report: Dec 8, 2019 at 8:53 am


Visibility: 10 mi

Pressure: 30.22 "Hg

Humidity: 64%

Dew Point: 43 °F

Location of Fairfield (historical)Location

Past Weather in Fairfield (historical) — Graph

°F

Fairfield (historical) Temperature Yesterday

Maximum temperature yesterday: 63 °F (at 12:53 pm)
Minimum temperature yesterday: 42 °F (at 11:53 pm)
Average temperature yesterday: 52 °F

High & Low Weather Summary for the Past Weeks

 TemperatureHumidityPressure
High69 °F (Nov 30, 11:53 am)100% (Nov 30, 11:33 pm)30.41 "Hg (Nov 30, 11:33 pm)
Low29 °F (Dec 4, 5:53 am)30% (Dec 5, 2:53 pm)29.60 "Hg (Nov 30, 11:12 pm)
Average50 °F70%30.01 "Hg
* Reported Nov 23 7:53 am — Dec 8 7:53 am, Fairfield (historical). Weather by CustomWeather, © 2019

Note: Actual official high and low records may vary slightly from our data, if they occured in-between our weather recording intervals... More about our weather records

Fairfield (historical) Weather History for the Previous 24 Hours

Scroll right to see more
 ConditionsComfort  
Time TempWeatherWind HumidityBarometerVisibility
7:53 am
Sun, Dec 8
53 °FOvercast.12 mph66%30.22 "Hg10 mi
6:53 am51 °FOvercast.12 mph69%30.21 "Hg10 mi
5:53 am52 °FOvercast.10 mph66%30.20 "Hg10 mi
4:53 am51 °FOvercast.12 mph69%30.19 "Hg10 mi
3:53 am48 °FOvercast.7 mph80%30.19 "Hg10 mi
2:53 am47 °FOvercast.5 mph86%30.19 "Hg10 mi
1:53 am46 °FOvercast.5 mph86%30.21 "Hg10 mi
12:53 am44 °FOvercast.No wind85%30.21 "Hg10 mi
11:53 pm
Sat, Dec 7
42 °FClear.5 mph89%30.22 "Hg10 mi
10:53 pm44 °FPassing clouds.5 mph85%30.22 "Hg10 mi
9:53 pm45 °FPassing clouds.No wind82%30.24 "Hg10 mi
8:53 pm48 °FPassing clouds.6 mph77%30.24 "Hg10 mi
7:53 pm50 °FClear.9 mph74%30.24 "Hg10 mi
6:53 pm51 °FClear.7 mph71%30.24 "Hg10 mi
5:53 pm55 °FClear.6 mph59%30.23 "Hg10 mi
4:53 pm57 °FClear.5 mph58%30.23 "Hg10 mi
3:53 pm63 °FSunny.No wind47%30.21 "Hg10 mi
2:53 pm63 °FSunny.5 mph47%30.20 "Hg10 mi
1:53 pm63 °FPassing clouds.6 mph48%30.22 "Hg10 mi
12:53 pm63 °FSunny.3 mph47%30.24 "Hg10 mi
11:53 am60 °FSunny.No wind52%30.26 "Hg10 mi
10:53 am59 °FSunny.No wind54%30.27 "Hg10 mi
9:53 am55 °FSunny.3 mph59%30.28 "Hg10 mi
Weather by CustomWeather, © 2019

See weather overview

Advertising